Temperature
23 23 23 22 22 22 21 21 21 20 20 20 20 20 19 19 19 19 19 19 19 19 19 19 19 19 19 19 19 19 19 18 18 18 18 18 18 18 18 18 18 18 18
23 23 23 22 22 22 22 21 21 21 20 20 20 20 20 19 19 19 19 19 19 19 19 19 19 19 19 19 19 19 19 19 18 18 18 18 18 19 18 18 18 18 18
23 23 23 22 22 22 22 21 21 21 21 20 20 20 19 19 19 19 19 19 19 19 19 19 19 19 19 19 19 19 19 19 19 19 18 18 18 18 18 18 18 18 18
24 23 23 23 22 22 22 22 21 21 21 20 20 20 20 19 19 19 19 19 19 19 19 19 19 19 19 19 19 19 19 19 19 19 19 19 18 18 18 18 18 18 18
24 24 23 23 23 23 22 22 21 21 21 20 20 20 20 20 19 19 19 19 19 19 19 19 19 19 19 19 19 19 19 19 19 19 19 19 19 18 18 18 18 18 18
24 24 24 24 23 23 22 22 22 21 21 21 20 20 20 20 20 19 19 19 19 19 19 19 19 19 19 19 19 19 19 19 19 19 19 19 18 18 18 18 18 18 18
25 24 24 23 23 23 23 22 22 21 21 21 21 20 20 20 20 20 20 19 19 19 19 19 19 19 19 19 19 19 19 19 19 19 19 19 18 18 18 18 18 18 18
25 24 24 24 24 23 23 22 22 22 21 21 21 21 20 20 20 20 20 20 19 19 19 19 19 19 19 19 19 19 19 19 19 19 19 19 18 18 18 18 18 17 18
25 24 24 24 24 23 23 23 22 22 22 21 21 21 21 20 20 20 20 19 20 20 19 19 19 19 19 19 19 19 19 19 19 19 19 18 18 18 18 18 18 18 17
25 25 24 24 24 24 23 23 23 22 22 22 21 21 21 20 20 20 20 20 20 20 19 19 19 19 19 19 19 19 19 19 19 19 18 18 18 18 18 18 18 18 17
24 24 24 24 24 23 23 23 23 22 22 22 21 21 21 21 20 20 20 20 20 20 20 19 19 19 19 19 19 19 19 19 19 19 18 18 18 18 18 18 17 17 17
25 24 24 24 24 23 23 23 23 22 22 22 21 21 21 21 20 20 20 20 20 20 20 19 19 19 19 19 19 19 19 19 19 19 18 18 18 18 18 17 17 17 17
24 24 24 24 24 23 23 23 23 22 22 22 21 21 21 21 20 20 20 20 20 20 19 19 19 19 19 19 19 19 19 19 18 18 18 18 18 18 17 17 17 17 17
24 24 23 23 23 24 23 23 23 22 22 22 21 21 21 20 20 20 20 20 20 19 19 19 19 19 19 19 19 19 19 18 18 18 18 18 18 17 17 17 17 17 16
24 24 24 23 23 23 23 23 22 22 22 22 21 21 21 20 20 20 20 20 19 19 19 19 19 19 19 19 18 18 18 18 18 18 18 17 17 17 17 16 16 16 16
23 24 24 24 23 23 23 23 22 22 22 21 21 21 21 20 20 20 20 19 19 19 19 19 19 19 19 18 18 18 18 18 18 17 17 17 17 17 16 16 16 16 16
23 23 23 23 23 23 22 22 22 22 21 21 21 20 20 20 20 19 19 19 19 19 19 18 18 18 18 18 18 18 18 17 17 17 17 17 17 16 16 16 16 15 15
22 22 23 23 23 22 22 22 22 21 21 21 21 20 20 20 20 19 19 19 19 19 19 18 18 18 18 18 18 17 17 17 17 17 16 16 16 16 16 16 15 15 15
22 22 22 22 22 22 22 21 21 21 21 20 20 20 20 20 19 19 19 18 18 18 18 18 18 18 18 18 17 17 17 17 17 16 16 16 16 16 15 15 15 15 15
22 22 22 22 22 22 21 21 21 20 20 20 20 20 20 20 19 19 18 18 18 18 18 17 17 17 17 17 17 17 16 16 16 16 16 16 15 15 15 15 15 15 15
21 21 21 21 21 21 21 20 20 20 20 20 19 19 19 19 19 18 18 18 18 17 17 17 17 17 17 17 16 16 16 16 16 16 15 15 15 15 15 15 14 14 14
20 20 20 20 20 20 20 20 19 19 19 19 19 19 18 18 18 18 18 17 17 17 17 16 16 16 16 16 16 16 16 15 15 15 15 15 15 15 14 14 14 14 14
19 19 19 19 19 19 19 19 19 19 18 18 18 18 18 18 17 17 17 17 17 16 16 16 16 16 16 15 15 15 15 15 15 15 15 14 14 14 14 14 14 13 13
19 19 19 18 18 18 18 18 18 18 18 18 18 17 17 17 17 17 17 16 16 16 16 16 15 15 15 15 15 15 15 15 14 14 14 14 14 14 13 13 13 13 13
18 18 18 18 18 18 17 17 17 17 17 17 17 17 17 16 16 16 16 16 16 15 15 15 15 15 15 15 15 14 14 14 14 14 13 13 13 13 13 13 13 12 12
17 17 17 17 17 17 17 17 17 17 17 17 16 16 16 16 16 15 15 15 15 15 15 15 15 14 14 14 14 14 13 13 13 13 13 13 12 12 12 12 12 12 12
Wind_Speed
12 12 12 12 11 9 9 9 8 7 5 4 3 3 2 2 2 3 5 6 6 6 5 3 3 3 3 3 3 2 2 1 2 2 1 2 2 3 4 4 4 6 8
11 12 11 11 11 11 10 10 9 8 7 5 4 3 3 2 3 2 4 6 6 6 5 4 4 4 3 3 3 3 2 1 2 3 1 2 3 3 2 2 4 4 4
16 14 13 12 12 12 12 11 9 9 7 6 4 3 2 1 1 1 2 3 6 6 5 5 4 4 4 4 4 4 4 2 1 2 3 2 3 2 3 2 2 3 3
15 15 14 14 14 13 12 10 10 9 8 7 6 6 4 3 3 2 2 2 4 4 5 5 4 4 4 4 4 4 3 4 2 1 1 3 3 2 2 3 2 2 4
18 18 17 16 15 14 13 11 10 9 8 7 7 6 4 3 2 2 3 3 2 3 4 5 4 3 3 4 4 3 4 3 3 2 1 1 1 2 2 2 3 2 3
16 16 15 14 13 13 12 11 11 9 9 8 8 7 6 5 4 4 3 3 2 2 3 4 3 3 4 4 4 4 4 4 3 3 2 2 2 2 2 3 3 3 3
15 15 15 15 14 15 14 13 12 10 10 9 8 8 7 7 6 5 5 4 2 2 3 4 4 3 3 4 3 3 3 3 3 3 3 3 3 3 3 2 2 2 2
14 16 17 16 16 16 15 14 13 11 11 10 9 8 7 6 4 5 5 5 4 4 4 4 4 4 4 4 3 2 3 2 3 3 3 2 2 2 3 3 2 1 2
13 15 15 15 16 16 15 15 14 12 11 11 9 8 7 6 5 5 4 4 3 4 4 4 4 4 4 3 3 2 2 2 3 3 2 2 2 2 3 3 4 3 2
10 12 13 14 14 14 13 13 13 13 11 10 10 9 7 6 6 5 5 4 4 4 3 3 3 3 3 3 3 2 2 2 2 2 2 2 2 2 2 2 2 3 4
9 9 10 11 11 11 12 12 12 11 10 10 9 8 7 7 6 5 5 5 4 4 4 4 4 3 3 3 3 2 2 2 2 1 1 2 2 1 1 1 1 2 2
8 8 9 9 9 10 11 12 11 11 10 10 9 8 7 7 6 6 6 5 5 4 4 4 4 4 4 3 4 4 3 2 2 2 1 2 2 2 1 1 1 1 2
7 6 7 8 8 9 10 11 11 11 10 9 9 8 7 7 7 7 6 5 5 5 5 4 5 5 5 4 4 4 4 3 3 3 3 3 3 2 2 2 2 2 2
8 7 7 8 8 8 9 9 10 10 9 9 8 8 8 7 6 6 6 5 5 5 5 5 5 5 4 3 3 3 3 3 3 3 3 4 4 4 4 3 3 2 2
6 7 8 8 8 7 8 8 8 9 9 9 8 8 7 6 6 5 5 5 5 6 5 5 4 4 4 4 4 4 4 3 3 3 3 3 3 4 4 3 3 3 2
5 6 7 8 8 9 8 8 8 9 9 9 8 7 7 6 6 5 5 4 4 4 4 5 5 4 3 4 5 5 4 3 3 3 3 3 2 3 3 4 5 5 4
5 5 6 7 7 8 8 8 9 8 8 8 7 6 6 6 6 6 5 5 5 4 4 4 4 3 3 4 4 5 4 4 4 4 3 3 2 2 2 3 4 4 5
5 5 5 5 5 6 7 7 7 8 8 7 7 6 6 6 5 5 5 5 4 4 4 3 4 3 2 3 4 4 4 3 3 3 3 3 3 3 2 2 2 3 4
4 4 5 6 5 5 6 7 6 6 7 7 6 6 6 5 5 5 4 4 4 3 3 3 3 3 2 2 3 3 2 2 2 3 2 3 3 3 2 2 3 4 5
3 3 4 5 5 4 6 7 6 6 6 6 6 5 5 6 6 5 4 3 4 4 3 3 3 4 3 2 2 3 2 2 2 1 1 2 2 2 1 2 3 4 5
3 4 5 4 3 3 5 6 5 5 5 5 4 4 4 5 5 5 4 4 4 4 3 3 2 2 3 2 3 4 3 3 2 2 2 3 3 3 3 3 4 6 5
4 4 4 2 1 3 5 5 4 4 4 4 4 4 4 4 4 4 4 4 5 5 4 3 1 1 1 2 2 3 3 3 3 3 3 3 4 3 3 3 4 4 2
3 3 3 2 1 1 4 5 3 3 4 4 4 4 3 3 4 4 4 4 3 4 4 3 3 2 2 1 2 2 3 3 2 3 4 3 2 2 2 3 3 2 1
2 2 3 2 1 1 3 4 4 4 4 4 4 3 3 2 2 3 3 4 4 3 4 4 3 3 2 1 1 1 1 1 1 1 2 1 1 1 1 2 2 1 1
1 2 2 2 1 1 1 2 3 4 4 4 3 3 3 4 3 2 1 3 3 5 5 4 5 4 3 4 4 3 2 2 2 1 1 1 1 1 2 2 2 1 1
1 1 1 1 1 1 1 2 3 4 5 3 3 3 2 2 3 3 1 3 1 2 4 4 5 3 3 4 3 2 2 3 5 4 1 1 1 2 2 2 2 1 1
Wind_Direction
176 168 166 163 156 154 154 152 153 160 148 138 137 136 162 173 168 174 175 174 171 167 162 160 158 161 165 176 168 148 136 159 146 100 5 328 286 237 223 210 203 206 204
170 171 168 166 164 165 164 160 163 165 163 161 158 159 163 173 178 183 176 180 177 172 171 166 173 178 170 171 166 151 146 191 160 142 113 350 335 312 244 223 212 213 196
177 177 175 173 170 171 172 170 169 168 169 161 146 140 111 82 96 160 189 191 181 178 177 177 181 182 178 187 191 172 161 186 225 171 153 161 234 294 314 271 227 205 205
178 179 178 176 179 179 174 168 169 170 172 164 157 156 162 173 192 187 186 188 185 183 183 177 178 177 173 185 199 182 172 165 196 246 216 192 180 179 297 315 289 233 214
181 181 181 181 181 178 174 173 170 173 174 172 171 169 176 182 180 164 161 176 189 190 184 178 176 182 184 189 189 181 179 174 179 198 216 210 204 167 176 267 294 296 246
185 183 182 176 177 176 175 175 174 180 178 176 177 178 181 181 174 177 179 190 195 203 201 190 188 195 192 193 190 186 183 188 187 195 191 186 195 210 190 226 254 265 267
183 179 178 178 177 177 179 179 179 183 184 183 186 186 186 184 185 188 189 188 187 200 214 205 201 201 200 196 184 178 189 189 190 202 207 204 208 194 181 189 239 259 275
184 181 182 180 180 180 179 179 181 184 184 184 189 187 187 187 192 190 184 188 196 206 202 200 204 201 196 196 185 186 200 189 199 215 212 211 217 192 185 186 184 251 293
182 182 181 180 180 181 182 182 182 184 186 187 185 185 188 189 186 182 181 188 200 203 199 201 201 200 193 190 175 188 205 191 202 214 215 219 231 211 206 190 176 178 229
176 181 182 181 181 182 181 180 182 186 187 187 188 191 192 190 184 179 189 194 202 200 186 188 186 181 181 179 174 194 203 191 217 211 219 245 250 237 223 205 198 185 188
168 174 179 177 173 171 173 177 183 183 185 186 188 188 185 185 183 187 198 199 199 193 189 186 183 182 183 183 179 192 184 196 235 232 213 248 250 248 257 223 203 199 182
159 167 166 161 162 168 174 178 179 181 185 185 183 185 182 180 185 197 203 197 197 197 190 184 185 189 192 188 186 202 206 200 220 229 216 256 247 243 242 220 229 225 201
138 148 152 156 163 171 176 177 177 180 179 173 176 180 185 189 195 202 204 195 193 194 189 184 190 197 198 193 194 196 207 208 212 207 206 227 216 231 230 213 225 238 231
147 145 154 161 164 169 172 179 182 179 172 169 174 181 188 192 196 199 196 194 194 194 195 195 200 199 196 197 200 198 202 208 216 215 216 223 215 223 227 227 226 214 205
146 155 161 168 166 164 167 175 179 173 168 166 174 184 187 185 179 179 181 183 187 193 191 193 200 197 197 210 204 205 207 208 220 232 231 234 230 230 230 234 222 207 207
157 166 168 164 166 170 170 171 173 170 165 170 180 183 181 180 179 182 182 180 186 188 184 193 196 197 212 210 199 195 204 201 208 227 238 241 252 254 252 244 227 207 206
158 168 171 168 173 175 171 173 171 165 163 169 174 177 178 179 182 182 175 180 188 187 189 197 190 196 208 203 198 194 191 201 215 219 225 241 255 247 256 261 254 243 232
157 163 165 168 171 170 166 162 160 159 163 168 171 171 173 179 181 176 181 187 185 183 188 190 186 187 214 199 194 190 191 200 209 213 209 213 242 250 243 249 269 271 263
155 157 156 157 160 157 152 142 141 148 155 167 173 175 175 174 175 181 186 183 173 170 170 170 167 168 200 187 175 174 184 206 229 224 208 215 233 256 248 242 270 284 287
115 123 127 123 128 148 147 141 150 157 171 179 179 174 174 176 179 183 181 176 169 173 163 162 174 174 188 191 172 173 171 189 236 256 241 224 230 253 244 237 250 268 278
91 108 112 116 139 144 138 147 159 178 188 175 163 166 180 181 182 180 173 166 163 158 157 163 186 177 187 188 172 164 171 188 205 226 241 247 231 241 250 240 242 254 262
69 89 106 109 111 130 133 145 175 188 171 158 162 175 185 186 176 168 171 165 159 161 168 166 178 227 219 207 199 173 179 184 197 237 248 248 239 235 244 253 271 278 282
92 97 113 104 65 155 158 165 191 172 156 153 162 174 182 182 169 164 168 169 168 176 184 181 195 225 245 244 225 201 188 195 211 249 257 250 224 222 257 292 300 316 318
104 96 96 116 170 175 177 177 174 161 150 153 161 162 161 160 154 153 161 169 178 184 190 190 201 215 227 243 266 260 220 210 221 254 261 244 247 264 290 312 317 283 229
128 118 131 168 196 186 199 188 168 152 148 158 162 159 160 160 153 146 166 180 193 191 191 202 199 196 218 237 210 196 207 199 200 149 57 21 352 340 328 325 321 308 313
115 109 110 144 185 174 215 207 182 166 158 162 162 166 165 161 158 147 93 32 136 172 172 183 186 206 205 193 182 191 185 152 141 123 139 229 262 268 280 287 303 305 283
Height
1508 1510 1512 1514 1516 1518 1520 1521 1523 1524 1526 1527 1528 1529 1530 1531 1532 1533 1534 1535 1536 1537 1538 1539 1540 1541 1541 1542 1543 1543 1544 1545 1545 1546 1546 1546 1546 1546 1546 1546 1546 1546 1546
1507 1509 1510 1513 1514 1516 1518 1520 1522 1523 1525 1526 1528 1529 1530 1531 1532 1533 1533 1534 1535 1536 1537 1538 1539 1540 1541 1541 1542 1543 1543 1544 1545 1545 1545 1545 1546 1544 1545 1544 1544 1544 1544
1503 1506 1508 1510 1512 1515 1517 1518 1520 1522 1524 1525 1527 1528 1529 1530 1531 1532 1533 1534 1535 1536 1537 1538 1539 1539 1540 1541 1541 1542 1543 1543 1544 1544 1545 1544 1543 1543 1543 1543 1543 1543 1543
1500 1502 1505 1508 1510 1512 1515 1517 1519 1521 1523 1524 1526 1527 1528 1528 1530 1531 1532 1533 1534 1535 1536 1537 1538 1539 1540 1540 1541 1541 1542 1542 1543 1543 1543 1543 1543 1542 1542 1542 1541 1541 1541
1495 1498 1501 1504 1507 1510 1513 1515 1518 1520 1522 1523 1525 1526 1527 1528 1529 1531 1532 1533 1534 1534 1535 1536 1537 1538 1539 1539 1540 1540 1541 1541 1542 1542 1542 1542 1542 1541 1540 1539 1540 1540 1539
1492 1495 1499 1502 1505 1508 1511 1514 1516 1518 1520 1522 1524 1525 1526 1527 1528 1530 1531 1532 1533 1533 1534 1535 1536 1537 1537 1538 1539 1539 1540 1540 1540 1540 1540 1540 1540 1539 1539 1538 1537 1537 1537
1489 1492 1496 1499 1502 1505 1508 1511 1513 1516 1518 1520 1522 1523 1525 1526 1527 1528 1529 1530 1531 1532 1533 1534 1534 1535 1536 1537 1537 1538 1538 1538 1538 1539 1539 1538 1538 1538 1537 1536 1535 1535 1534
1485 1488 1491 1494 1498 1502 1505 1508 1511 1513 1516 1518 1520 1522 1524 1525 1526 1527 1528 1529 1530 1531 1532 1532 1533 1534 1535 1535 1536 1536 1536 1537 1537 1537 1537 1536 1536 1536 1535 1534 1534 1533 1532
1482 1485 1489 1492 1495 1499 1502 1505 1508 1511 1513 1516 1518 1520 1522 1523 1524 1526 1527 1528 1528 1529 1530 1531 1531 1532 1533 1533 1534 1534 1535 1535 1535 1534 1534 1534 1534 1534 1533 1533 1532 1532 1530
1481 1484 1487 1489 1493 1496 1499 1503 1506 1508 1511 1514 1516 1518 1520 1522 1523 1524 1525 1526 1526 1527 1528 1529 1530 1530 1531 1531 1532 1532 1532 1532 1532 1532 1532 1532 1532 1532 1531 1530 1530 1529 1528
1478 1482 1485 1488 1491 1495 1498 1501 1503 1506 1509 1512 1514 1516 1518 1519 1521 1522 1522 1523 1524 1525 1526 1526 1527 1528 1529 1529 1530 1530 1530 1530 1530 1530 1530 1529 1530 1529 1528 1528 1527 1526 1526
1477 1480 1483 1486 1490 1493 1495 1498 1501 1504 1507 1509 1512 1514 1515 1517 1518 1519 1520 1521 1521 1522 1523 1524 1525 1526 1526 1527 1527 1527 1527 1527 1527 1527 1527 1527 1527 1526 1525 1524 1524 1523 1523
1476 1480 1482 1485 1487 1491 1494 1497 1499 1501 1504 1507 1509 1511 1512 1514 1515 1516 1517 1518 1519 1520 1521 1522 1522 1523 1524 1524 1525 1525 1525 1524 1524 1524 1524 1524 1523 1523 1522 1521 1520 1520 1519
1475 1477 1480 1483 1485 1488 1491 1495 1497 1500 1502 1505 1507 1509 1510 1511 1513 1514 1515 1516 1517 1517 1518 1519 1520 1521 1521 1521 1521 1521 1521 1521 1521 1521 1521 1520 1520 1519 1519 1518 1517 1516 1516
1474 1476 1478 1481 1483 1485 1488 1492 1495 1497 1500 1502 1504 1506 1508 1509 1510 1511 1512 1513 1514 1515 1516 1516 1517 1518 1518 1518 1518 1518 1518 1518 1518 1517 1517 1517 1517 1517 1516 1515 1514 1513 1512
1473 1474 1476 1478 1480 1483 1486 1489 1492 1494 1497 1499 1501 1503 1505 1506 1507 1508 1509 1510 1511 1512 1513 1513 1514 1514 1514 1515 1515 1515 1515 1515 1514 1514 1514 1514 1514 1513 1513 1512 1511 1510 1509
1472 1473 1474 1476 1478 1481 1484 1486 1489 1492 1494 1496 1499 1501 1502 1503 1504 1505 1506 1507 1507 1508 1509 1510 1511 1511 1511 1512 1512 1512 1512 1511 1511 1511 1511 1510 1510 1509 1509 1508 1507 1506 1505
1471 1472 1473 1475 1478 1480 1481 1483 1486 1489 1491 1493 1495 1497 1499 1500 1502 1503 1503 1504 1504 1504 1505 1506 1507 1507 1507 1508 1508 1508 1508 1508 1507 1508 1507 1507 1506 1506 1505 1504 1503 1502 1501
1471 1471 1472 1474 1476 1478 1480 1481 1484 1486 1488 1490 1492 1494 1496 1497 1498 1499 1500 1501 1501 1501 1502 1502 1503 1503 1503 1504 1504 1505 1504 1504 1504 1504 1504 1503 1502 1502 1501 1500 1499 1498 1497
1471 1471 1472 1473 1474 1476 1477 1479 1481 1483 1485 1487 1489 1491 1492 1494 1495 1496 1497 1498 1498 1498 1499 1499 1499 1500 1500 1500 1500 1501 1500 1500 1500 1500 1500 1499 1499 1498 1497 1497 1495 1494 1493
1470 1470 1471 1472 1473 1475 1476 1477 1478 1480 1482 1484 1485 1487 1489 1490 1491 1493 1493 1494 1494 1495 1495 1495 1496 1496 1496 1497 1497 1497 1497 1496 1496 1496 1496 1495 1495 1495 1494 1494 1492 1491 1490
1469 1469 1469 1470 1471 1473 1474 1475 1476 1477 1479 1481 1482 1484 1485 1486 1488 1489 1489 1490 1490 1491 1492 1492 1492 1492 1493 1493 1493 1493 1493 1493 1493 1492 1492 1492 1492 1491 1490 1489 1489 1488 1487
1468 1469 1468 1468 1470 1471 1472 1473 1474 1476 1477 1478 1479 1481 1482 1483 1484 1485 1485 1486 1487 1487 1488 1488 1488 1488 1489 1489 1490 1490 1490 1490 1490 1489 1489 1489 1488 1487 1486 1485 1485 1484 1483
1467 1467 1467 1467 1468 1469 1470 1471 1472 1473 1474 1475 1476 1477 1478 1479 1480 1481 1482 1482 1483 1483 1483 1483 1484 1484 1485 1485 1485 1486 1486 1486 1486 1486 1486 1485 1484 1484 1482 1482 1481 1480 1479
1466 1466 1466 1466 1466 1467 1468 1468 1469 1470 1471 1471 1472 1473 1474 1475 1476 1477 1478 1478 1479 1480 1480 1480 1481 1480 1480 1481 1482 1482 1482 1482 1482 1482 1481 1481 1480 1479 1478 1477 1476 1476 1475
1463 1464 1464 1464 1464 1465 1465 1466 1466 1467 1467 1468 1469 1470 1471 1472 1472 1473 1474 1475 1476 1476 1477 1477 1478 1478 1478 1478 1478 1478 1479 1478 1478 1478 1477 1476 1476 1475 1474 1473 1472 1472 1471